Flag for Switzerland Weather past 2 weeks in Lugano, Switzerland

Now
36 °F

Clear.


Feels Like: 36 °F
Forecast: 33 / 49 °F
Wind: 2 mph from Northeast

Location: Lugano Airport

Current Time: Mar 1, 2015 at 2:04:39 AM

Latest Report: Mar 1, 2015 at 1:20 AM


Visibility: 10 mi

Pressure: 30.07 "Hg

Humidity: 87%

Dew point: 32 °F

Location of LuganoLocation

Historic Weather in Lugano — Graph

°F

Lugano temperature yesterday

Maximum temperature yesterday: 54 °F (at 1:50 PM)
Minimum temperature yesterday: 37 °F (at 11:50 PM)
Average temperature yesterday: 48 °F

Past Weeks' High & Low Weather Summary

 TemperatureHumidityPressure
High55 °F (Feb 17, 2:50 PM)100% (Feb 14, 11:20 AM)30.63 "Hg (Feb 14, 11:20 AM)
Low27 °F (Feb 20, 6:50 AM)21% (Feb 24, 10:20 PM)29.56 "Hg (Feb 22, 2:50 AM)
Average40 °F74%30.02 "Hg
* Reported Feb 14 12:20 AM — Mar 1 12:50 AM, Lugano, Weather by CustomWeather, © 2015

Note: Actual official high and low records may vary slightly from our data, if they occured in-between our weather recording intervals... More about our weather records

Advertising

Lugano weather history for previous 24 hours

 ConditionsComfort  
Time TempWeatherWind HumidityBarometerVisibility
12:50 AM
Sun, Mar 1
37 °FClear.1 mph87%30.07 "Hg10 mi
12:20 AM37 °FClear.1 mph81%30.07 "Hg10 mi
11:50 PM
Sat, Feb 28
37 °FChilly.1 mph87%30.07 "HgN/A
11:20 PM39 °FPassing clouds.1 mph81%30.07 "HgN/A
10:50 PM39 °FClear.1 mph87%30.09 "Hg10 mi
10:20 PM41 °FQuite cool.1 mph76%30.07 "HgN/A
9:50 PM45 °FPassing clouds.1 mph71%30.09 "HgN/A
9:20 PM45 °FPassing clouds.1 mph76%30.07 "HgN/A
8:50 PM45 °FPassing clouds.1 mph71%30.07 "HgN/A
8:20 PM46 °FPassing clouds.2 mph66%30.07 "HgN/A
7:50 PM46 °FPassing clouds.2 mph62%30.07 "HgN/A
7:20 PM48 °FPassing clouds.3 mph58%30.07 "HgN/A
6:50 PM48 °FPassing clouds.1 mph58%30.04 "HgN/A
6:20 PM50 °FPassing clouds.5 mph54%30.04 "HgN/A
5:50 PM50 °FPartly sunny.5 mph50%30.04 "HgN/A
5:20 PM52 °FPartly sunny.2 mph50%30.04 "HgN/A
4:50 PM52 °FPartly sunny.3 mph50%30.04 "HgN/A
4:20 PM52 °FBroken clouds.5 mph47%30.04 "HgN/A
3:50 PM54 °FBroken clouds.6 mph44%30.04 "HgN/A
3:20 PM54 °FPartly sunny.6 mph44%30.04 "HgN/A
2:50 PM52 °FPartly sunny.8 mph47%30.04 "HgN/A
2:20 PM52 °FPartly sunny.8 mph47%30.04 "HgN/A
1:50 PM54 °FPartly sunny.5 mph41%30.04 "HgN/A
1:20 PM52 °FPartly sunny.6 mph47%30.04 "HgN/A
12:50 PM52 °FPartly sunny.3 mph44%30.04 "HgN/A
12:20 PM52 °FPartly sunny.8 mph44%30.07 "HgN/A
11:50 AM50 °FBroken clouds.14 mph47%30.07 "HgN/A
11:20 AM50 °FScattered showers. Broken clouds.15 mph43%30.07 "HgN/A
10:50 AM48 °FScattered showers. Broken clouds.17 mph46%30.07 "HgN/A
10:20 AM48 °FScattered showers. Broken clouds.16 mph43%30.04 "HgN/A
9:50 AM50 °FScattered showers. Broken clouds.15 mph40%30.04 "HgN/A
9:20 AM46 °FScattered showers. Broken clouds.3 mph50%30.04 "HgN/A
8:50 AM48 °FScattered showers. Broken clouds.9 mph40%30.01 "HgN/A
8:20 AM46 °FScattered showers. Broken clouds.5 mph50%30.01 "HgN/A
7:50 AM43 °FBroken clouds.5 mph61%29.98 "HgN/A
7:20 AM45 °FScattered showers. Partly sunny.5 mph53%29.98 "HgN/A
6:50 AM45 °FPassing clouds.3 mph53%29.98 "HgN/A
6:20 AM45 °FPassing clouds.1 mph49%29.95 "HgN/A
5:50 AM45 °FPassing clouds.6 mph53%29.95 "HgN/A
5:20 AM50 °FPassing clouds.10 mph35%29.95 "HgN/A
4:20 AM50 °FOvercast.13 mph35%29.95 "HgN/A
3:50 AM50 °FPartly cloudy.17 mph32%29.95 "HgN/A
3:20 AM50 °FPassing clouds.18 mph32%29.95 "HgN/A
2:50 AM50 °FPassing clouds.17 mph32%29.95 "HgN/A
2:20 AM50 °FPassing clouds.18 mph32%29.95 "HgN/A
Weather by CustomWeather, © 2015

See weather overviewHow to use our weather pages